Home > Time Zones > World Clock > Weather > Mali > Bamako > Past weeks

Flag for Mali Weather past 2 weeks in Bamako, Mali

Now
81 °F

Clear.


Feels Like: 83 °F
Forecast: 79 / 104 °F
Wind: 7 mph from Southwest

Location: Bamako / Senou

Current Time: May 24, 2015 at 3:43:14 AM

Latest Report: May 24, 2015 at 3:00 AM


Visibility: 10 mi

Pressure: 29.92 "Hg

Humidity: 66%

Dew point: 68 °F

Location of BamakoLocation

Historic Weather in Bamako — Graph

°F

Bamako temperature yesterday

Maximum temperature yesterday: 99 °F (at 4:30 PM)
Minimum temperature yesterday: 79 °F (at 5:30 AM)
Average temperature yesterday: 88 °F

Past Weeks' High & Low Weather Summary

 TemperatureHumidityPressure
High108 °F (May 15, 4:00 PM)89% (May 14, 2:30 AM)30.09 "Hg (May 14, 2:30 AM)
Low75 °F (May 10, 12:30 AM)11% (May 15, 4:00 PM)29.77 "Hg (May 15, 4:00 PM)
Average89 °F49%29.91 "Hg
* Reported May 9 2:00 AM — May 24 2:30 AM, Bamako, Weather by CustomWeather, © 2015

Note: Actual official high and low records may vary slightly from our data, if they occured in-between our weather recording intervals... More about our weather records

Advertising

Bamako weather history for previous 24 hours

 ConditionsComfort  
Time TempWeatherWind HumidityBarometerVisibility
2:30 AM
Sun, May 24
81 °FClear.7 mph66%29.92 "Hg10 mi
2:00 AM82 °FClear.7 mph62%29.92 "Hg10 mi
1:30 AM82 °FClear.7 mph62%29.92 "Hg10 mi
1:00 AM82 °FClear.9 mph62%29.92 "Hg10 mi
12:30 AM82 °FClear.7 mph62%29.92 "Hg10 mi
12:00 AM84 °FClear.6 mph58%29.95 "Hg10 mi
11:30 PM
Sat, May 23
84 °FClear.6 mph58%29.95 "Hg10 mi
11:00 PM86 °FClear.8 mph52%29.95 "Hg10 mi
10:30 PM86 °FClear.7 mph52%29.95 "Hg10 mi
10:00 PM88 °FClear.7 mph43%29.92 "Hg10 mi
9:30 PM88 °FPassing clouds.6 mph43%29.92 "HgN/A
9:00 PM90 °FClear.7 mph41%29.92 "Hg10 mi
8:30 PM90 °FPassing clouds.7 mph41%29.92 "HgN/A
8:00 PM91 °FClear.7 mph36%29.92 "Hg10 mi
7:30 PM91 °FClear.8 mph36%29.89 "Hg10 mi
7:00 PM93 °FClear.8 mph34%29.89 "Hg10 mi
6:30 PM95 °FSunny.7 mph32%29.89 "Hg10 mi
6:00 PM95 °FSunny.9 mph30%29.89 "Hg10 mi
5:30 PM97 °FPassing clouds.7 mph28%29.89 "HgN/A
5:00 PM99 °FPassing clouds.7 mph27%29.89 "HgN/A
4:30 PM99 °FPassing clouds.9 mph29%29.89 "HgN/A
4:00 PM97 °FPassing clouds.8 mph30%29.89 "HgN/A
3:30 PM97 °FPassing clouds.10 mph30%29.92 "HgN/A
3:00 PM95 °FSunny.8 mph34%29.92 "Hg10 mi
2:30 PM93 °FSunny.10 mph36%29.92 "Hg10 mi
2:00 PM95 °FPassing clouds.13 mph34%29.95 "HgN/A
1:30 PM93 °FPassing clouds.15 mph39%29.95 "HgN/A
1:00 PM91 °FPassing clouds.16 mph41%29.98 "HgN/A
12:30 PM90 °FPassing clouds.14 mph46%29.98 "HgN/A
12:00 PM90 °FSunny.16 mph46%29.98 "Hg10 mi
11:30 AM88 °FSunny.20 mph49%29.98 "Hg10 mi
11:00 AM88 °FSunny.22 mph52%30.01 "Hg10 mi
10:30 AM86 °FSunny.18 mph55%30.01 "Hg10 mi
10:00 AM84 °FSunny.17 mph62%30.01 "Hg10 mi
9:30 AM84 °FSunny.17 mph66%30.04 "Hg10 mi
9:00 AM82 °FSunny.18 mph70%30.01 "Hg10 mi
8:30 AM82 °FSunny.18 mph70%30.01 "Hg10 mi
8:00 AM82 °FSunny.16 mph74%29.98 "Hg10 mi
7:30 AM81 °FScattered clouds.15 mph79%29.98 "HgN/A
7:00 AM81 °FPartly sunny.16 mph79%29.98 "HgN/A
6:30 AM81 °FSunny.7 mph84%29.95 "Hg10 mi
6:01 AM79 °FClear.7 mph89%29.95 "Hg10 mi
5:30 AM79 °FClear.8 mph89%29.95 "Hg10 mi
4:30 AM82 °FClear.8 mph74%29.95 "Hg10 mi
4:00 AM82 °FClear.7 mph70%29.92 "Hg10 mi
3:30 AM82 °FClear.7 mph70%29.92 "Hg10 mi
3:00 AM84 °FClear.7 mph66%29.92 "Hg10 mi
Weather by CustomWeather, © 2015

See weather overviewHow to use our weather pages